Date,TemperatureHighF,TemperatureAvgF,TemperatureLowF,DewpointHighF,DewpointAvgF,DewpointLowF,HumidityHigh,HumidityAvg,HumidityLow,PressureMaxIn,PressureMinIn,WindSpeedMaxMPH,WindSpeedAvgMPH,GustSpeedMaxMPH,PrecipitationSumIn
2013-1-1,45,42,37,42,38,32,92,87,83,30.02,29.77,0,0,0,0.00
2013-1-2,39,37,34,32,31,28,85,79,72,30.08,29.99,0,0,0,0.00
2013-1-3,49,39,30,33,30,26,88,71,47,30.20,30.06,0,0,0,0.01
2013-1-4,50,44,38,36,33,30,77,65,52,30.26,30.10,0,0,0,0.00
2013-1-5,54,44,39,43,38,32,90,77,62,30.11,29.95,0,0,0,0.01
2013-1-6,56,43,33,34,30,24,88,62,36,30.13,30.02,0,0,0,0.00
2013-1-7,56,43,30,38,30,21,79,61,46,30.08,29.85,0,0,0,0.00
2013-1-8,50,47,46,48,42,34,94,81,62,29.85,29.70,0,0,0,0.74
2013-1-9,56,53,49,54,52,47,95,94,93,29.87,29.70,0,0,0,1.76
2013-1-10,60,56,48,58,51,44,96,84,64,29.76,29.64,0,0,0,0.03
2013-1-11,65,53,48,61,49,43,87,85,76,29.71,29.56,0,0,0,0.00
2013-1-12,72,57,37,69,53,33,95,89,68,29.67,29.39,0,0,0,0.11
2013-1-13,43,36,31,33,28,22,86,71,54,30.02,29.64,0,0,0,0.00
2013-1-14,44,35,28,30,25,22,77,68,55,30.08,29.95,0,0,0,0.00
2013-1-15,36,34,30,32,28,24,91,81,68,29.98,29.89,0,0,0,0.07
2013-1-16,47,37,28,27,24,21,78,62,41,30.03,29.90,0,0,0,0.03
2013-1-17,58,45,35,38,31,25,73,59,39,30.24,29.98,0,0,0,0.00
2013-1-18,62,47,33,40,33,25,80,61,42,30.25,30.02,0,0,0,0.00
2013-1-19,65,50,40,48,41,34,85,70,52,30.02,29.89,0,0,0,0.00
2013-1-20,69,53,39,51,42,33,90,69,47,29.97,29.82,0,0,0,0.00
2013-1-21,58,47,38,42,36,30,89,66,53,30.03,29.86,0,0,0,0.00
2013-1-22,64,49,37,49,39,27,76,67,57,30.06,29.93,0,0,0,0.00
2013-1-23,72,58,48,57,51,43,93,76,57,30.02,29.88,0,0,0,0.00
2013-1-24,76,62,54,63,57,51,96,82,63,29.94,29.79,0,0,0,0.00
2013-1-25,60,52,47,57,47,40,92,82,73,29.94,29.77,0,0,0,0.00
2013-1-26,50,48,46,48,45,41,94,89,75,29.97,29.85,0,0,0,0.00
2013-1-27,75,61,48,63,57,46,97,85,62,29.85,29.68,0,0,0,0.01
2013-1-28,76,70,66,67,64,62,91,80,67,29.77,29.61,0,0,0,0.00
2013-1-29,76,66,54,67,60,44,91,81,56,29.61,29.21,0,0,0,0.26
2013-1-30,55,48,40,43,31,25,76,54,36,29.89,29.43,0,0,0,0.00
2013-1-31,67,49,34,34,28,25,73,50,22,30.07,29.85,0,0,0,0.00
2013-2-1,64,46,31,39,30,20,66,55,38,30.15,29.92,0,0,0,0.00
2013-2-2,66,53,45,47,39,33,82,61,32,30.06,29.89,0,0,0,0.00
2013-2-3,70,54,39,41,34,29,76,50,26,30.06,29.74,0,0,0,0.00
2013-2-4,70,60,53,58,48,34,85,66,43,29.74,29.56,0,0,0,0.05
2013-2-5,65,59,56,61,56,53,94,90,85,29.76,29.63,0,0,0,0.01
2013-2-6,70,61,55,63,57,52,96,88,70,29.78,29.64,0,0,0,0.01
2013-2-7,75,63,56,62,55,44,94,78,37,29.82,29.55,0,0,0,0.00
2013-2-8,66,53,42,48,38,34,83,60,32,30.00,29.82,0,0,0,0.00
2013-2-9,59,50,46,58,45,36,95,83,63,29.90,29.51,0,0,0,0.05
2013-2-10,66,59,49,63,43,29,96,59,26,29.78,29.41,0,0,0,0.67
2013-2-11,55,51,47,40,37,34,74,60,47,29.90,29.75,0,0,0,0.00
2013-2-12,50,47,44,47,44,38,92,88,73,29.80,29.59,0,0,0,0.67
2013-2-13,57,46,40,43,38,36,88,76,50,29.91,29.75,0,0,0,0.00
2013-2-14,69,52,38,46,39,33,87,65,38,29.87,29.76,0,0,0,0.00
2013-2-15,50,46,38,39,31,22,76,56,33,30.12,29.84,0,0,0,0.00
2013-2-16,56,44,34,34,29,23,72,56,37,30.16,29.92,0,0,0,0.00
2013-2-17,69,54,38,46,35,29,77,53,29,29.92,29.68,0,0,0,0.00
2013-2-18,77,61,49,58,46,34,82,60,30,29.87,29.49,0,0,0,0.00
2013-2-19,62,51,40,34,30,25,66,47,26,30.08,29.86,0,0,0,0.00
2013-2-20,51,45,41,41,36,32,85,73,48,29.96,29.56,0,0,0,0.10
2013-2-21,66,52,42,52,41,35,92,69,39,29.68,29.35,0,0,0,0.22
2013-2-22,49,41,33,38,29,22,82,63,46,29.89,29.66,0,0,0,0.00
2013-2-23,58,43,31,34,29,25,79,59,37,29.83,29.68,0,0,0,0.00
2013-2-24,70,54,37,46,38,27,81,57,32,29.69,29.38,10,1,13,0.00
2013-2-25,61,52,40,54,40,30,85,65,34,29.38,29.19,29,12,40,0.11
2013-2-26,57,47,41,37,34,30,79,61,42,29.65,29.36,30,12,43,0.00
2013-2-27,56,46,36,36,29,22,84,55,28,29.95,29.63,21,8,29,0.00
2013-2-28,58,45,35,32,28,24,78,54,31,30.02,29.89,19,8,28,0.00
2013-3-1,53,43,35,34,30,25,76,59,46,30.04,29.93,15,6,20,0.00
2013-3-2,54,41,30,28,25,20,75,53,32,30.16,29.97,16,6,23,0.00
2013-3-3,69,53,35,45,32,24,72,48,30,29.97,29.56,18,7,26,0.00
2013-3-4,81,66,55,55,49,42,78,57,33,29.56,29.35,21,11,32,0.00
2013-3-5,65,51,42,53,28,19,67,44,24,30.10,29.50,27,12,34,0.00
2013-3-6,62,47,34,30,24,21,64,43,22,30.20,29.94,12,4,15,0.00
2013-3-7,72,55,40,37,30,23,60,40,22,30.00,29.85,13,4,21,0.00
2013-3-8,64,59,53,55,49,35,78,71,46,29.95,29.77,11,5,16,0.00
2013-3-9,69,64,60,64,59,54,88,82,78,29.75,29.46,17,8,24,0.00
2013-3-10,65,52,42,60,42,32,88,71,57,29.83,29.46,27,10,34,0.88
2013-3-11,58,45,36,33,30,24,78,57,29,29.86,29.75,15,5,21,0.00
2013-3-12,67,52,37,37,32,28,73,49,28,30.05,29.79,13,4,18,0.00
2013-3-13,72,56,43,40,36,32,71,48,29,30.19,30.05,10,3,15,0.00
2013-3-14,76,61,48,50,41,32,64,50,37,30.11,29.93,19,6,26,0.00
2013-3-15,80,65,53,56,49,44,86,60,33,29.94,29.65,19,9,25,0.00
2013-3-16,81,68,58,61,56,50,87,65,46,29.65,29.45,19,10,28,0.00
2013-3-17,75,68,60,63,57,49,84,70,51,29.55,29.42,18,6,24,0.00
2013-3-18,69,62,54,64,50,38,93,67,45,29.77,29.39,17,8,26,0.00
2013-3-19,69,57,46,44,39,35,77,53,38,29.87,29.71,15,6,20,0.00
2013-3-20,68,56,46,38,35,29,68,46,26,30.05,29.79,15,5,23,0.00
2013-3-21,68,59,50,55,42,31,70,52,44,29.79,29.35,15,6,23,0.00
2013-3-22,65,54,48,59,49,44,89,83,67,29.60,29.34,18,8,23,0.00
2013-3-23,55,50,47,50,47,44,93,89,82,29.64,29.41,21,6,26,0.04
2013-3-24,52,46,40,48,32,23,91,61,39,29.92,29.53,24,13,34,0.03
2013-3-25,53,43,32,27,22,17,70,45,24,30.14,29.91,22,8,28,0.00
2013-3-26,62,45,32,29,23,18,61,42,27,30.25,30.06,14,3,24,0.00
2013-3-27,71,54,39,40,32,23,59,44,30,30.08,29.85,15,5,22,0.00
2013-3-28,72,62,51,57,51,37,80,67,50,29.98,29.85,14,6,22,0.00
2013-3-29,76,67,60,60,57,55,83,71,56,29.94,29.80,16,6,22,0.00
2013-3-30,76,67,57,66,60,53,90,79,67,29.85,29.65,22,6,28,0.96
2013-3-31,74,66,59,62,58,52,91,77,54,29.74,29.56,22,5,45,0.65
2013-4-1,84,67,52,56,51,45,80,60,37,29.83,29.70,8,2,13,0.00
2013-4-2,73,66,51,63,56,41,83,71,62,29.79,29.66,20,6,26,0.00
2013-4-3,53,49,46,47,44,43,90,83,74,29.90,29.69,18,8,25,0.56
2013-4-4,50,46,43,44,41,39,89,82,73,29.94,29.84,15,7,18,0.05
2013-4-5,72,56,43,52,45,38,89,70,46,30.00,29.79,11,3,15,0.00
2013-4-6,76,64,54,59,53,48,82,69,50,29.79,29.61,19,7,30,0.00
2013-4-7,73,67,61,62,59,55,86,77,69,29.68,29.51,13,6,23,0.00
2013-4-8,76,70,64,65,62,58,84,76,66,29.53,29.43,16,8,25,0.00
2013-4-9,83,74,69,67,65,61,85,73,56,29.49,29.40,18,8,29,0.00
2013-4-10,73,50,41,68,46,36,90,85,68,29.72,29.46,24,10,47,0.48
2013-4-11,65,49,39,44,37,31,83,66,42,29.72,29.56,14,5,18,0.03
2013-4-12,81,61,43,53,45,37,84,59,35,29.76,29.61,12,2,15,0.00
2013-4-13,81,66,53,54,49,44,76,56,33,29.78,29.55,11,4,16,0.00
2013-4-14,82,69,58,66,58,47,84,67,54,29.55,29.33,16,6,24,0.00
2013-4-15,86,76,68,70,67,63,90,74,54,29.52,29.38,16,7,23,0.00
2013-4-16,90,78,70,70,67,65,84,71,49,29.68,29.52,14,6,22,0.00
2013-4-17,85,78,74,71,69,66,85,74,58,29.66,29.41,19,10,30,0.00
2013-4-18,75,56,46,70,48,34,88,74,53,29.90,29.33,23,12,37,1.52
2013-4-19,65,51,40,41,34,28,74,54,31,30.02,29.87,18,6,25,0.00
2013-4-20,74,58,43,44,39,35,74,51,28,29.97,29.78,15,5,20,0.00
2013-4-21,76,62,48,52,46,38,80,57,40,29.98,29.83,12,3,18,0.00
2013-4-22,80,66,54,61,53,44,79,64,52,29.89,29.63,14,5,20,0.00
2013-4-23,68,57,44,62,51,39,89,81,69,29.90,29.57,20,9,25,0.01
2013-4-24,65,50,41,42,38,34,87,65,40,30.05,29.90,18,9,25,0.01
2013-4-25,77,62,49,49,43,37,68,52,33,30.09,29.92,12,4,16,0.00
2013-4-26,78,67,57,68,57,44,81,70,52,29.94,29.74,11,5,18,0.00
2013-4-27,76,70,63,65,60,53,88,73,55,29.86,29.74,14,6,18,0.00
2013-4-28,86,68,52,68,58,47,89,72,54,29.81,29.63,9,2,13,0.00
2013-4-29,87,74,62,68,62,56,89,67,46,29.68,29.56,13,4,19,0.00
2013-4-30,87,73,62,67,62,54,86,68,47,29.61,29.51,11,4,16,0.00
2013-5-1,87,74,65,68,63,59,87,69,46,29.73,29.56,11,4,17,0.00
2013-5-2,68,54,43,61,48,36,88,81,72,30.06,29.71,20,12,29,0.04
2013-5-3,71,53,40,38,34,28,82,53,24,30.04,29.78,24,10,41,0.00
2013-5-4,72,58,44,40,35,27,72,45,19,29.78,29.64,25,8,35,0.00
2013-5-5,68,56,45,48,43,38,79,62,48,29.89,29.77,18,7,23,0.00
2013-5-6,80,64,51,56,51,43,84,63,41,29.86,29.73,13,4,17,0.00
2013-5-7,88,71,56,59,54,48,80,58,33,29.83,29.70,8,2,12,0.00
2013-5-8,86,73,61,62,57,51,76,58,40,29.77,29.64,14,5,22,0.00
2013-5-9,73,69,66,66,64,58,90,82,61,29.74,29.61,11,5,17,0.22
2013-5-10,81,71,65,67,63,59,92,78,56,29.80,29.63,10,4,15,0.00
2013-5-11,81,70,60,59,53,47,85,58,32,29.92,29.77,20,7,27,0.00
2013-5-12,83,68,55,54,45,37,71,46,21,30.02,29.90,13,4,18,0.00
2013-5-13,87,71,54,55,49,42,72,48,29,30.00,29.87,14,6,20,0.00
2013-5-14,86,73,61,63,56,49,84,59,33,29.92,29.75,16,7,24,0.00
2013-5-15,78,71,69,68,65,59,91,81,64,29.82,29.57,15,7,22,0.41
2013-5-16,84,71,63,73,66,60,92,84,69,29.65,29.51,17,6,24,0.78
2013-5-17,89,79,71,76,72,68,94,80,64,29.63,29.56,13,5,17,0.01
2013-5-18,93,81,72,75,71,67,87,73,53,29.68,29.54,14,6,22,0.00
2013-5-19,92,80,71,72,69,66,87,70,50,29.62,29.45,18,8,28,0.00
2013-5-20,91,80,74,74,70,68,84,72,54,29.60,29.44,18,7,25,0.00
2013-5-21,85,74,63,74,67,60,91,81,66,29.64,29.43,24,5,33,2.31
2013-5-22,90,72,61,68,62,57,90,73,45,29.71,29.60,0,0,0,0.00
2013-5-23,89,78,69,74,70,63,92,77,59,29.85,29.65,0,0,0,0.00
2013-5-24,86,78,70,76,71,65,90,79,67,30.00,29.77,0,0,0,1.42
2013-5-25,86,75,69,73,68,64,92,81,62,29.93,29.81,0,0,0,0.66
2013-5-26,89,79,72,74,70,66,91,77,56,29.85,29.70,0,0,0,0.01
2013-5-27,90,80,72,71,69,67,88,71,51,29.76,29.57,0,0,0,0.00
2013-5-28,88,80,72,70,68,66,84,69,52,29.67,29.55,0,0,0,0.00
2013-5-29,83,78,73,72,70,68,84,77,67,29.61,29.48,0,0,0,0.02
2013-5-30,90,80,74,76,72,69,85,76,61,29.57,29.47,0,0,0,0.01
2013-5-31,94,83,77,76,73,71,84,71,51,29.61,29.45,0,0,0,0.00
2013-6-1,88,80,75,75,72,69,81,76,63,29.71,29.49,0,0,0,0.04
2013-6-2,84,75,67,69,58,49,81,58,32,29.82,29.70,0,0,0,0.00
2013-6-3,93,76,62,66,61,55,82,62,40,29.76,29.61,0,0,0,0.00
2013-6-4,94,81,69,72,67,62,81,65,44,29.79,29.56,0,0,0,0.00
2013-6-5,96,82,72,74,70,66,83,67,45,29.73,29.52,0,0,0,0.00
2013-6-6,81,74,69,71,67,64,88,79,63,29.70,29.54,0,0,0,1.09
2013-6-7,84,74,63,64,59,55,86,63,38,29.77,29.65,0,0,0,0.00
2013-6-8,90,77,64,66,61,57,82,61,41,29.71,29.57,0,0,0,0.00
2013-6-9,96,80,69,72,68,62,90,68,46,29.71,29.61,0,0,0,0.60
2013-6-10,101,84,71,73,69,65,89,63,37,29.73,29.67,0,0,0,0.00
2013-6-11,98,85,75,75,72,66,88,66,45,29.80,29.69,0,0,0,0.00
2013-6-12,98,85,76,74,72,70,89,67,42,29.83,29.69,0,0,0,0.00
2013-6-13,102,87,75,75,72,69,86,64,40,29.82,29.66,0,0,0,0.00
2013-6-14,99,88,76,75,72,69,79,62,44,29.76,29.64,0,0,0,0.00
2013-6-15,94,84,76,77,73,69,81,71,51,29.77,29.65,0,0,0,0.00
2013-6-16,99,86,77,75,72,70,85,66,41,29.77,29.64,0,0,0,0.00
2013-6-17,90,82,71,78,72,66,87,74,61,29.81,29.62,0,0,0,0.44
2013-6-18,89,78,73,74,70,68,86,77,59,29.77,29.64,0,0,0,0.00
2013-6-19,94,81,71,77,72,66,91,74,51,29.77,29.64,0,0,0,0.00
2013-6-20,98,86,76,74,71,69,86,65,41,29.81,29.69,0,0,0,0.00
2013-6-21,98,86,76,74,71,68,84,63,42,29.85,29.73,0,0,0,0.00
2013-6-22,97,86,76,74,71,68,82,63,42,29.82,29.66,0,0,0,0.00
2013-6-23,98,86,77,74,70,67,81,61,40,29.77,29.65,0,0,0,0.00
2013-6-24,97,86,77,74,70,66,81,61,41,29.80,29.66,0,0,0,0.00
2013-6-25,99,87,77,74,70,66,81,59,36,29.77,29.59,0,0,0,0.00
2013-6-26,101,88,77,74,70,65,81,58,39,29.74,29.61,0,0,0,0.00
2013-6-27,104,89,78,76,71,68,75,58,35,29.78,29.62,0,0,0,0.00
2013-6-28,101,88,77,73,69,65,72,55,35,29.71,29.57,0,0,0,0.00
2013-6-29,96,86,75,70,64,58,71,49,31,29.65,29.55,0,0,0,0.00
2013-6-30,90,81,72,65,60,55,73,50,33,29.69,29.57,0,0,0,0.00
2013-7-1,88,77,67,62,59,55,75,56,38,29.77,29.69,0,0,0,0.00
2013-7-2,90,78,66,60,56,49,74,49,26,29.83,29.75,0,0,0,0.08
2013-7-3,96,79,65,63,57,49,74,50,25,29.82,29.70,0,0,0,0.00
2013-7-4,96,81,70,66,62,57,71,53,33,29.78,29.67,0,0,0,0.00
2013-7-5,97,83,69,68,64,61,79,55,34,29.77,29.63,0,0,0,0.00
2013-7-6,98,84,73,71,64,60,74,53,33,29.72,29.62,0,0,0,0.00
2013-7-7,99,86,74,73,68,62,76,56,36,29.76,29.67,0,0,0,0.00
2013-7-8,98,86,77,74,71,69,80,62,42,29.85,29.75,0,0,0,0.00
2013-7-9,101,88,76,73,68,62,80,54,30,29.89,29.73,0,0,0,0.00
2013-7-10,105,91,81,73,70,66,74,53,31,29.82,29.66,0,0,0,0.00
2013-7-11,100,87,79,74,70,67,72,59,38,29.73,29.65,0,0,0,0.00
2013-7-12,102,87,74,75,71,69,89,62,38,29.74,29.64,0,0,0,0.00
2013-7-13,99,87,77,71,66,59,74,51,32,29.76,29.64,0,0,0,0.00
2013-7-14,82,74,71,69,66,59,87,76,48,29.78,29.65,0,0,0,0.07
2013-7-15,77,73,69,71,68,65,90,84,78,29.86,29.70,0,0,0,0.08
2013-7-16,91,78,72,74,71,68,92,80,54,29.99,29.84,0,0,0,0.64
2013-7-17,92,80,72,77,72,68,91,76,52,29.99,29.89,0,0,0,0.28
2013-7-18,98,84,73,75,71,68,87,66,43,29.94,29.76,0,0,0,0.00
2013-7-19,89,81,76,75,72,69,82,74,54,29.81,29.70,0,0,0,0.03
2013-7-20,95,82,74,76,72,69,88,73,48,29.74,29.61,0,0,0,0.22
2013-7-21,98,85,74,77,72,70,90,69,43,29.69,29.61,0,0,0,0.00
2013-7-22,99,87,77,76,73,69,88,65,39,29.74,29.61,0,0,0,0.00
2013-7-23,99,88,78,77,72,64,83,62,35,29.74,29.57,0,0,0,0.00
2013-7-24,94,83,75,74,70,66,82,65,47,29.81,29.61,0,0,0,0.03
2013-7-25,96,84,73,76,71,67,85,66,46,29.82,29.73,0,0,0,0.00
2013-7-26,94,84,77,76,72,70,85,70,49,29.79,29.60,0,0,0,0.08
2013-7-27,93,80,71,72,68,65,88,68,42,29.77,29.66,0,0,0,0.00
2013-7-28,94,81,70,73,68,63,85,66,47,29.75,29.63,0,0,0,0.00
2013-7-29,98,86,78,75,71,62,85,63,36,29.76,29.67,0,0,0,0.00
2013-7-30,98,88,79,74,69,61,78,55,42,29.84,29.69,0,0,0,0.00
2013-7-31,103,88,78,73,70,65,77,56,35,29.81,29.65,0,0,0,0.00
2013-8-1,102,89,78,74,72,70,79,58,38,29.75,29.64,0,0,0,0.00
2013-8-2,104,90,80,73,70,66,74,53,33,29.71,29.61,0,0,0,0.00
2013-8-3,101,89,79,73,70,66,71,54,34,29.76,29.66,0,0,0,0.00
2013-8-4,103,89,80,74,70,67,76,56,33,29.82,29.67,0,0,0,0.00
2013-8-5,104,90,80,72,68,63,71,51,29,29.76,29.59,0,0,0,0.00
2013-8-6,104,91,79,72,68,65,72,50,30,29.67,29.54,0,0,0,0.00
2013-8-7,105,91,80,73,69,64,75,50,29,29.65,29.51,0,0,0,0.00
2013-8-8,104,90,80,74,69,65,76,51,32,29.65,29.51,0,0,0,0.00
2013-8-9,105,91,79,71,64,55,67,44,22,29.70,29.58,0,0,0,0.00
2013-8-10,100,87,75,74,69,64,85,57,39,29.80,29.69,9,1,13,0.00
2013-8-11,103,88,78,74,71,65,79,60,31,29.82,29.69,17,4,33,0.09
2013-8-12,102,88,77,74,71,67,81,59,35,29.80,29.67,12,4,20,0.00
2013-8-13,98,85,79,75,71,68,82,64,41,29.76,29.64,17,9,54,0.11
2013-8-14,90,81,76,77,72,68,89,75,57,29.77,29.69,13,13,13,0.02
2013-8-15,92,79,69,68,64,61,77,62,43,29.82,29.71,13,9,14,0.00
2013-8-16,90,78,69,67,63,59,82,62,41,29.82,29.71,21,5,29,0.02
2013-8-17,92,78,66,62,60,58,78,56,34,29.84,29.72,14,5,21,0.00
2013-8-18,94,81,67,68,62,59,80,56,33,29.84,29.73,13,3,17,0.00
2013-8-19,98,83,70,68,62,58,79,52,29,29.81,29.67,11,4,15,0.00
2013-8-20,97,84,71,66,62,60,73,51,30,29.79,29.68,10,2,15,0.00
2013-8-21,97,84,74,70,66,61,75,54,36,29.83,29.72,11,3,15,0.00
2013-8-22,101,87,75,73,68,65,76,56,34,29.82,29.66,10,3,15,0.00
2013-8-23,101,87,77,73,69,65,75,56,33,29.77,29.63,13,3,17,0.00
2013-8-24,100,88,77,73,69,66,75,55,35,29.80,29.70,12,4,20,0.00
2013-8-25,98,86,76,72,68,65,75,55,36,29.89,29.78,14,5,20,0.00
2013-8-26,97,86,75,70,66,62,77,55,32,29.91,29.78,17,5,30,0.00
2013-8-27,97,84,76,72,69,66,81,63,39,29.87,29.74,11,4,16,0.00
2013-8-28,100,86,74,72,68,64,77,56,33,29.84,29.71,12,3,17,0.00
2013-8-29,102,88,76,69,67,64,71,51,30,29.81,29.68,10,2,14,0.00
2013-8-30,104,90,78,71,65,62,69,46,26,29.74,29.58,10,3,14,0.00
2013-8-31,105,91,79,73,67,63,75,48,28,29.62,29.49,10,3,16,0.00
2013-9-1,104,90,80,72,68,65,69,50,30,29.59,29.46,23,4,29,0.23
2013-9-2,95,84,76,74,72,69,83,68,48,29.72,29.55,14,3,21,0.22
2013-9-3,100,86,75,72,67,61,77,56,29,29.69,29.57,13,4,16,0.00
2013-9-4,100,87,75,74,68,64,80,56,35,29.74,29.62,12,4,22,0.00
2013-9-5,101,87,75,72,66,61,72,53,29,29.81,29.68,10,3,14,0.00
2013-9-6,99,87,75,71,65,60,70,50,30,29.77,29.57,14,3,18,0.00
2013-9-7,101,87,77,72,67,62,75,53,31,29.70,28.88,6,1,8,0.00
2013-9-8,99,85,73,70,66,62,77,55,33,29.66,29.50,1,1,1,0.00
2013-9-9,97,85,74,70,65,62,76,54,35,29.68,28.97,1,1,1,0.00
2013-9-10,94,84,74,72,65,58,79,56,31,29.77,28.66,1,1,1,0.00
2013-9-11,94,81,73,71,66,61,75,61,44,29.77,28.42,4,1,5,0.00
2013-9-12,95,85,74,70,68,66,78,59,40,29.72,28.24,14,2,19,0.00
2013-9-13,95,85,77,72,69,67,74,59,41,29.62,28.13,13,4,18,0.00
2013-9-14,93,83,74,68,63,58,66,52,38,29.63,28.10,13,6,20,0.00
2013-9-15,95,83,73,70,63,57,60,51,41,29.69,28.10,9,4,14,0.00
2013-9-16,97,84,75,72,66,62,75,55,33,29.74,28.12,9,2,13,0.00
2013-9-17,94,86,78,70,66,63,66,53,37,29.74,28.96,10,3,15,0.00
2013-9-18,94,86,78,70,67,63,68,55,41,29.67,28.73,12,4,18,0.00
2013-9-19,89,83,76,73,70,63,86,66,54,29.70,28.57,13,4,16,0.28
2013-9-20,76,74,70,72,70,65,92,89,85,29.70,29.59,14,7,21,1.47
2013-9-21,85,72,62,65,55,46,86,59,30,29.72,29.61,15,7,20,0.00
2013-9-22,85,71,58,58,54,50,79,57,33,29.70,29.56,11,3,14,0.00
2013-9-23,89,78,62,60,58,52,71,51,35,29.61,29.51,9,2,12,0.00
2013-9-24,93,78,66,67,57,46,81,53,21,29.68,29.58,16,4,22,0.00
2013-9-25,102,78,60,58,52,47,71,45,21,29.66,29.54,10,1,14,0.00
2013-9-26,95,80,66,62,58,53,68,48,31,29.65,29.55,11,3,16,0.00
2013-9-27,88,79,68,72,65,58,77,64,54,29.71,29.61,11,4,18,0.00
2013-9-28,88,77,67,75,70,64,91,78,64,29.79,29.64,19,6,44,1.28
2013-9-29,78,67,63,64,61,58,92,82,55,29.80,29.73,12,6,15,0.00
2013-9-30,89,82,76,65,61,55,68,50,41,29.66,29.58,9,3,13,0.00
2013-10-1,91,79,72,71,69,65,89,73,48,29.71,29.60,9,4,13,0.00
2013-10-2,88,80,74,73,70,68,87,73,51,29.75,29.63,11,5,16,0.00
2013-10-3,90,80,74,74,71,67,88,74,52,29.70,29.58,12,6,17,0.00
2013-10-4,89,80,74,72,70,67,89,72,52,29.69,29.60,12,6,20,0.00
2013-10-5,79,66,53,71,59,44,87,79,60,29.85,29.63,19,8,24,0.19
2013-10-6,73,62,52,51,44,34,88,57,25,29.87,29.77,20,6,25,0.01
2013-10-7,81,65,51,49,41,35,72,45,22,29.91,29.81,12,3,18,0.00
2013-10-8,82,65,51,54,49,42,79,58,37,29.88,29.75,9,2,16,0.00
2013-10-9,83,68,55,59,54,48,83,61,40,29.84,29.74,9,3,14,0.00
2013-10-10,84,72,61,61,57,53,82,62,40,29.82,29.65,11,4,15,0.00
2013-10-11,85,76,67,71,67,60,88,75,61,29.71,29.59,14,5,21,0.00
2013-10-12,88,78,72,76,70,64,89,77,50,29.83,29.64,15,5,25,0.00
2013-10-13,76,72,68,69,67,64,91,84,77,29.97,29.81,11,4,17,0.00
2013-10-14,72,71,69,70,68,66,93,91,86,29.90,29.70,9,5,15,0.65
2013-10-15,78,68,55,73,65,52,93,90,81,29.81,29.67,14,8,20,2.26
2013-10-16,60,56,53,56,53,51,94,90,84,29.84,29.74,15,7,20,0.31
2013-10-17,74,60,49,54,50,45,88,70,47,29.87,29.74,7,2,9,0.00
2013-10-18,71,61,52,57,52,46,87,73,54,29.82,29.65,16,3,21,0.00
2013-10-19,66,54,44,50,42,38,85,66,40,29.95,29.82,16,6,22,0.00
2013-10-20,72,57,44,48,44,37,85,62,38,29.83,29.64,12,4,18,0.00
2013-10-21,72,61,54,63,54,47,85,77,66,29.85,29.66,15,6,21,0.00
2013-10-22,74,59,46,49,44,40,86,62,34,29.90,29.77,15,4,18,0.04
2013-10-23,82,64,50,55,49,42,80,60,32,29.87,29.79,8,2,10,0.00
2013-10-24,78,65,53,56,50,44,78,60,43,30.03,29.81,10,5,14,0.00
2013-10-25,68,58,51,48,45,40,77,61,46,30.16,29.99,13,6,19,0.00
2013-10-26,75,62,54,63,54,45,90,74,66,30.00,29.78,20,5,34,1.48
2013-10-27,69,64,60,60,58,56,90,82,69,29.88,29.76,6,2,8,0.13
2013-10-28,77,66,56,68,61,51,92,82,72,29.87,29.76,9,3,15,0.01
2013-10-29,76,72,69,70,67,64,91,85,80,29.85,29.76,11,6,17,0.00
2013-10-30,72,69,66,68,65,62,93,89,83,29.79,29.56,17,7,29,0.55
2013-10-31,75,68,58,68,56,42,95,69,34,29.64,29.43,27,9,36,0.01
2013-11-1,76,62,51,54,49,44,83,64,45,29.82,29.58,12,3,16,0.00
2013-11-2,67,58,49,44,39,33,72,52,29,30.03,29.82,16,6,22,0.00
2013-11-3,67,54,41,46,41,34,81,62,43,29.97,29.75,12,4,18,0.00
2013-11-4,60,58,54,58,52,46,93,82,65,29.85,29.76,10,4,16,1.11
2013-11-5,68,65,60,67,63,58,94,93,92,29.82,29.69,12,5,16,1.23
2013-11-6,69,56,46,67,51,39,94,82,64,30.10,29.71,17,8,23,0.22
2013-11-7,63,51,41,44,41,36,86,70,46,30.24,30.09,10,3,14,0.00
2013-11-8,66,54,44,46,42,38,84,67,44,30.12,29.93,12,3,19,0.00
2013-11-9,67,60,55,52,49,46,74,66,56,29.98,29.87,9,4,13,0.00
2013-11-10,69,59,52,50,47,43,76,67,48,30.09,29.98,6,2,8,0.00
2013-11-11,74,59,47,56,49,41,86,69,52,30.03,29.91,7,1,10,0.00
2013-11-12,58,46,35,49,28,22,72,49,37,30.42,30.01,22,11,28,0.04
2013-11-13,55,41,30,31,26,21,74,56,38,30.42,30.11,9,2,13,0.00
2013-11-14,60,47,35,46,33,25,77,60,34,30.11,29.77,9,4,82,0.00
2013-11-15,71,60,53,58,52,45,86,74,60,29.77,29.59,10,4,17,0.00
2013-11-16,74,69,62,69,64,58,92,85,73,29.61,29.44,14,6,21,0.00
2013-11-17,84,75,63,70,59,40,88,62,34,29.76,29.46,5,5,5,0.00
2013-11-18,70,62,54,40,36,31,50,40,25,29.93,29.76,5,5,5,0.00
2013-11-19,69,60,55,42,36,30,53,41,26,29.93,29.78,5,5,5,0.00
2013-11-20,66,57,48,50,41,32,68,54,46,29.79,29.66,5,5,5,0.00
2013-11-21,72,65,48,68,60,44,91,84,68,29.93,29.70,5,5,5,0.19
2013-11-22,48,38,36,44,35,33,92,90,87,30.16,29.91,18,8,24,0.17
2013-11-23,43,39,36,38,34,28,92,84,67,30.26,30.14,17,10,28,0.06
2013-11-24,37,35,32,29,26,24,78,71,61,30.31,30.08,14,8,18,0.02
2013-11-25,39,37,34,36,32,28,88,85,73,30.09,29.88,12,5,18,0.67
2013-11-26,51,42,36,37,32,25,90,72,49,30.09,29.83,19,10,26,0.00
2013-11-27,46,36,30,25,22,17,70,55,37,30.20,30.07,14,7,20,0.00
2013-11-28,54,39,30,33,27,21,76,62,42,30.19,30.08,7,7,7,0.00
2013-11-29,58,43,30,42,32,22,84,65,44,30.26,30.09,7,7,7,0.00
2013-11-30,65,52,41,52,42,33,82,70,51,30.09,29.89,7,7,7,0.00
2013-12-1,69,59,50,58,53,44,91,82,67,29.90,29.63,7,7,7,0.00
2013-12-2,70,56,45,54,48,40,90,76,52,29.62,29.41,7,7,7,0.01
2013-12-3,72,56,43,49,44,38,91,68,34,29.42,29.27,7,7,7,0.01
2013-12-4,77,62,48,62,53,37,93,74,54,29.61,29.33,7,7,7,0.00
2013-12-5,48,35,30,37,28,23,90,74,60,29.89,29.59,10,7,14,0.00
2013-12-6,33,29,25,31,25,20,91,85,80,30.23,29.81,12,1,14,0.01
2013-12-7,28,25,22,25,22,17,91,86,80,30.26,30.01,0,0,0,0.00
2013-12-8,36,32,28,33,29,25,89,89,87,30.02,29.78,0,0,0,0.18
2013-12-9,35,32,30,32,29,24,91,87,77,30.12,29.88,7,5,8,0.00
2013-12-10,40,30,22,31,23,18,83,76,65,30.24,30.08,8,3,9,0.43
2013-12-11,44,34,26,35,28,21,87,78,66,30.31,30.05,11,3,14,0.18
2013-12-12,51,39,28,37,31,23,85,73,53,30.34,30.04,6,2,8,0.01
2013-12-13,46,43,42,44,38,32,93,81,68,30.04,29.54,11,4,14,0.16
2013-12-14,47,42,34,45,37,28,95,85,71,30.05,29.52,19,8,26,0.00
2013-12-15,58,42,31,38,32,26,83,68,40,30.08,29.96,9,3,12,0.01
2013-12-16,65,48,36,43,36,31,84,67,42,29.99,29.88,11,5,14,0.00
2013-12-17,69,51,38,46,38,31,80,64,41,30.03,29.92,7,2,10,0.00
2013-12-18,68,52,37,47,40,30,84,64,43,30.00,29.75,14,4,20,0.00
2013-12-19,71,61,52,62,55,47,89,81,67,29.75,29.50,19,7,27,0.00
2013-12-20,68,57,37,64,53,35,92,86,67,29.60,29.49,19,7,26,0.06
2013-12-21,55,45,36,53,43,34,95,92,90,29.51,29.26,18,4,21,1.57
2013-12-22,50,38,31,48,33,26,93,81,66,30.12,29.50,16,8,21,0.07
2013-12-23,46,35,27,34,28,22,87,77,60,30.29,30.10,12,4,14,0.00
2013-12-24,52,38,27,37,30,23,86,73,52,30.28,30.01,10,4,15,0.00
2013-12-25,57,44,35,44,36,29,81,72,59,30.12,30.00,13,4,16,0.00
2013-12-26,54,41,32,42,34,29,89,77,59,30.18,30.06,7,2,9,0.00
2013-12-27,59,43,34,41,34,28,81,71,51,30.16,30.05,6,1,9,0.00
2013-12-28,60,48,38,43,38,32,85,69,51,30.05,29.71,9,2,13,0.00
2013-12-29,53,42,32,44,33,24,80,71,66,30.00,29.67,17,6,33,0.00
2013-12-30,43,37,31,26,24,20,70,59,49,30.14,29.98,12,4,15,0.00
2013-12-31,55,40,29,32,26,20,77,59,39,30.17,29.95,9,3,13,0.00
2014-1-1,65,46,36,50,37,28,83,71,52,29.95,29.62,22,8,30,0.00
2014-1-2,42,33,25,28,20,17,75,61,42,30.19,29.90,19,8,28,0.00